EW7556 Weather Reports


Display with metric or nautical units.
time (UTC)temp
F
wind
direction
speed
MPH
gust
MPH
rain 1hr
in
rain 24hr
in
rain mn
in
humidity
%
barometer
mb
20220818220104 84 11 1.0 5.0 0.00 0.00 0.00 53 1012.0
20220818214557 84 11 3.0 6.0 0.00 0.00 0.00 54 1012.1
20220818213050 83 354 3.0 6.0 0.00 0.00 0.00 54 1012.2
20220818211518 82 323 1.0 6.0 0.00 0.00 0.00 59 1012.3
20220818210006 82 328 1.0 5.0 0.00 0.00 0.00 56 1012.4
20220818204537 83 338 1.0 6.0 0.00 0.00 0.00 54 1012.4
20220818203046 83 14 2.0 5.0 0.00 0.00 0.00 55 1012.5
20220818201559 82 351 2.0 6.0 0.00 0.00 0.00 56 1012.6
20220818200118 82 350 2.0 7.0 0.00 0.00 0.00 57 1012.7
20220818194518 82 7 3.0 6.0 0.00 0.00 0.00 54 1012.6
20220818193041 82 341 0.0 5.0 0.00 0.00 0.00 56 1012.8
20220818191600 82 257 1.0 3.0 0.00 0.00 0.00 54 1013.1
20220818190201 81 259 2.0 6.0 0.00 0.00 0.00 55 1013.1
20220818184603 81 260 0.0 5.0 0.00 0.00 0.00 56 1013.2
20220818184514 81 242 0.0 5.0 0.00 0.00 0.00 55 1013.2
20220818183052 81 247 2.0 6.0 0.00 0.00 0.00 54 1013.4
20220818181557 80 258 1.0 6.0 0.00 0.00 0.00 54 1013.5
20220818180137 80 263 2.0 6.0 0.00 0.00 0.00 53 1013.7
20220818174527 81 340 2.0 8.0 0.00 0.00 0.00 53 1013.9
20220818173101 81 359 2.0 6.0 0.00 0.00 0.00 53 1013.9
20220818171555 80 243 0.0 3.0 0.00 0.00 0.00 55 1014.0
20220818170108 79 12 1.0 3.0 0.00 0.00 0.00 59 1013.9
20220818164557 78 27 1.0 4.0 0.00 0.00 0.00 59 1013.4
20220818163024 76 307 0.0 1.0 0.00 0.00 0.00 60 1013.7
20220818161523 74 224 0.0 2.0 0.00 0.00 0.00 74 1013.9
20220818160112 72 224 0.0 1.0 0.00 0.00 0.00 76 1013.7
20220818154553 70 224 0.0 2.0 0.00 0.00 0.00 79 1013.8
20220818153050 68 224 0.0 2.0 0.00 0.00 0.00 83 1014.1
20220818151505 66 224 0.0 1.0 0.00 0.00 0.00 85 1014.2
20220818150144 65 224 0.0 0.0 0.00 0.00 0.00 85 1013.7
20220818144511 65 224 0.0 1.0 0.00 0.00 0.00 86 1014.0
20220818143033 64 224 0.0 0.0 0.00 0.00 0.00 86 1013.9
20220818141637 64 224 0.0 0.0 0.00 0.00 0.00 86 1013.7
20220818140103 63 224 0.0 1.0 0.00 0.00 0.00 86 1013.6
20220818134539 62 224 0.0 0.0 0.00 0.00 0.00 87 1013.6
20220818133051 61 224 0.0 1.0 0.00 0.00 0.00 87 1013.4
20220818131557 61 224 0.0 0.0 0.00 0.00 0.00 87 1013.4
20220818130152 61 224 0.0 0.0 0.00 0.00 0.00 88 1013.4
20220818124558 61 224 0.0 0.0 0.00 0.00 0.00 88 1013.1
20220818123057 60 224 0.0 1.0 0.00 0.00 0.00 88 1013.2
20220818121517 60 224 0.0 0.0 0.00 0.00 0.00 88 1013.3
20220818120121 60 224 0.0 0.0 0.00 0.00 0.00 88 1013.4
20220818114524 60 224 0.0 0.0 0.00 0.00 0.00 88 1013.0
20220818113055 60 224 0.0 0.0 0.00 0.00 0.00 88 1013.1
20220818111523 60 224 0.0 0.0 0.00 0.00 0.00 88 1013.1
20220818110116 59 224 0.0 0.0 0.00 0.00 0.00 88 1013.2
20220818104602 59 224 0.0 0.0 0.00 0.00 0.00 88 1012.9
20220818104501 59 224 0.0 0.0 0.00 0.00 0.00 88 1012.9
20220818103032 59 224 0.0 0.0 0.00 0.00 0.00 88 1012.9
20220818101520 59 224 0.0 1.0 0.00 0.00 0.00 88 1013.0
20220818100110 59 224 0.0 1.0 0.00 0.00 0.00 88 1013.2
20220818094605 59 224 0.0 0.0 0.00 0.00 0.00 88 1013.1
20220818093022 59 224 0.0 1.0 0.00 0.00 0.00 88 1013.3
20220818091640 59 224 0.0 0.0 0.00 0.00 0.00 88 1012.8
20220818090122 59 224 0.0 0.0 0.00 0.00 0.00 88 1012.8
20220818084546 59 224 0.0 0.0 0.00 0.00 0.00 88 1013.1
20220818083054 59 224 0.0 0.0 0.00 0.00 0.00 88 1013.1
20220818083002 59 224 0.0 0.0 0.00 0.00 0.00 88 1013.1
20220818081519 59 224 0.0 1.0 0.00 0.00 0.00 87 1012.8
20220818080052 59 224 0.0 1.0 0.00 0.00 0.00 87 1013.0
20220818074532 59 224 0.0 0.0 0.00 0.00 0.00 87 1012.6
20220818073039 59 224 0.0 1.0 0.00 0.00 0.00 88 1012.9
20220818071551 59 224 0.0 1.0 0.00 0.00 0.00 87 1012.9
20220818070115 60 224 0.0 0.0 0.00 0.00 0.00 87 1012.6
20220818064521 60 224 0.0 1.0 0.00 0.00 0.00 86 1012.8
20220818063053 61 224 0.0 1.0 0.00 0.00 0.00 85 1012.7
20220818061520 62 224 0.0 2.0 0.00 0.00 0.00 84 1012.6
20220818060057 62 224 0.0 2.0 0.00 0.00 0.00 83 1012.5
20220818054610 62 191 0.0 2.0 0.00 0.00 0.00 84 1012.5
20220818054503 62 191 0.0 2.0 0.00 0.00 0.00 84 1012.5
20220818053028 62 198 2.0 3.0 0.00 0.00 0.00 84 1012.7
20220818051601 62 208 1.0 3.0 0.00 0.00 0.00 83 1012.7
20220818051504 62 215 1.0 2.0 0.00 0.00 0.00 83 1012.7
20220818050140 62 215 1.0 2.0 0.00 0.00 0.00 83 1012.8
20220818044538 62 217 0.0 1.0 0.00 0.00 0.00 83 1012.9
20220818043100 62 225 0.0 2.0 0.00 0.00 0.00 82 1012.9
20220818043002 62 225 0.0 1.0 0.00 0.00 0.00 81 1012.9
20220818041534 63 225 0.0 1.0 0.00 0.00 0.00 79 1012.8
20220818040109 64 225 0.0 0.0 0.00 0.00 0.00 76 1012.8
20220818034519 65 225 0.0 2.0 0.00 0.00 0.00 75 1012.9
20220818033038 66 235 2.0 7.0 0.00 0.00 0.00 74 1012.9
20220818031512 67 246 3.0 7.0 0.00 0.00 0.00 73 1012.9
20220818030023 67 255 3.0 8.0 0.00 0.00 0.00 71 1012.8
20220818024611 69 236 3.0 9.0 0.00 0.00 0.00 66 1012.7
20220818023103 74 255 0.0 3.0 0.00 0.00 0.00 58 1012.7
20220818021637 77 249 2.0 6.0 0.00 0.00 0.00 51 1012.6
20220818020105 85 250 2.0 4.0 0.00 0.00 0.00 40 1012.6
20220818014508 86 218 1.0 3.0 0.00 0.00 0.00 38 1012.6
20220818013028 87 208 0.0 2.0 0.00 0.00 0.00 39 1012.6
20220818011604 87 212 1.0 5.0 0.00 0.00 0.00 38 1012.6
20220818010108 87 224 2.0 5.0 0.00 0.00 0.00 38 1012.8
20220818004514 87 252 1.0 4.0 0.00 0.00 0.00 38 1012.8
20220818003030 87 245 0.0 3.0 0.00 0.00 0.00 38 1012.8
20220818001554 87 344 0.0 3.0 0.00 0.00 0.00 41 1013.1
20220818000109 87 333 0.0 3.0 0.00 0.00 0.00 45 1013.2
20220817234609 86 285 1.0 4.0 0.00 0.00 0.00 44 1013.4
20220817233012 86 7 0.0 4.0 0.00 0.00 0.00 43 1013.6
20220817231542 85 6 2.0 6.0 0.00 0.00 0.00 42 1013.7
20220817230045 85 359 2.0 6.0 0.00 0.00 0.00 43 1014.0
20220817224542 85 325 1.0 5.0 0.00 0.00 0.00 45 1014.1
20220817223059 84 1 1.0 6.0 0.00 0.00 0.00 46 1014.3
20220817221520 85 8 3.0 8.0 0.00 0.00 0.00 44 1014.5